OK4PZ-5 Weather Reports


time (UTC)temp
C
wind
direction
speed
KPH
gust
KPH
rain 1hr
cm
rain 24hr
cm
rain mn
cm
humidity
%
barometer
mb
20260507060002 11 236 3.2 9.7 0.00 0.00 0.00 82 1013.0
20260507054502 11 259 3.2 11.3 0.00 0.00 0.00 84 1013.0
20260507053001 10 262 3.2 9.7 0.00 0.00 0.00 86 1013.0
20260507051502 10 263 3.2 11.3 0.00 0.00 0.00 88 1013.0
20260507044502 10 259 1.6 4.8 0.00 0.00 0.00 90 1013.0
20260507043003 10 254 1.6 1.6 0.00 0.00 0.00 91 1012.0
20260507041502 10 230 0.0 4.8 0.00 0.00 0.00 91 1012.0
20260507040002 10 260 3.2 3.2 0.00 0.00 0.00 92 1012.0
20260507034502 10 247 1.6 1.6 0.00 0.00 0.00 92 1012.0
20260507033002 10 238 0.0 1.6 0.00 0.00 0.00 91 1012.0
20260507031502 10 260 0.0 3.2 0.00 0.00 0.00 91 1012.0
20260507030002 11 243 0.0 1.6 0.00 0.00 0.00 91 1011.0
20260507024502 11 260 0.0 1.6 0.00 0.00 0.00 91 1011.0
20260507023002 11 265 1.6 3.2 0.00 0.00 0.00 91 1011.0
20260507021502 11 262 1.6 4.8 0.00 0.00 0.00 89 1011.0
20260507020002 12 238 3.2 4.8 0.00 0.00 0.00 89 1011.0
20260507014502 12 245 6.4 9.7 0.00 0.00 0.00 89 1011.0
20260507011501 12 181 4.8 4.8 0.00 0.00 0.00 90 1011.0
20260507010002 12 272 4.8 6.4 0.00 0.00 0.00 90 1011.0
20260507004502 12 259 1.6 4.8 0.00 0.00 0.00 92 1011.0
20260507003002 11 288 1.6 3.2 0.00 0.00 0.00 94 1011.0
20260507001503 11 275 0.0 1.6 0.00 0.00 0.00 94 1011.0
20260507000002 12 283 0.0 1.6 0.00 0.00 0.00 94 1011.0
20260506234502 12 256 1.6 4.8 0.00 0.00 0.00 94 1011.0
20260506233001 12 263 1.6 1.6 0.00 0.00 0.00 94 1010.0
20260506231502 12 267 3.2 3.2 0.00 0.00 0.00 94 1010.0
20260506230002 12 226 4.8 11.3 0.00 0.00 0.00 94 1010.0
20260506224502 12 272 6.4 17.7 0.00 0.00 0.00 94 1010.0
20260506223003 12 268 11.3 12.9 0.00 0.00 0.00 93 1010.0
20260506221503 12 255 4.8 9.7 0.00 0.00 0.00 94 1009.0
20260506220002 13 229 6.4 11.3 0.00 0.00 0.08 93 1009.0
20260506214502 13 270 8.0 14.5 0.00 0.00 0.08 93 1009.0
20260506213002 13 243 6.4 9.7 0.00 0.00 0.08 91 1009.0
20260506211502 13 24 0.0 0.0 0.00 0.00 0.08 92 1008.0
20260506210002 13 288 0.0 4.8 0.00 0.00 0.08 92 1009.0
20260506204502 13 293 6.4 9.7 0.00 0.00 0.08 92 1009.0
20260506203003 13 283 3.2 12.9 0.00 0.00 0.08 91 1009.0
20260506201501 13 300 11.3 16.1 0.00 0.00 0.08 90 1008.0
20260506200002 15 297 11.3 20.9 0.00 0.00 0.08 84 1008.0
20260506194502 16 245 9.7 12.9 0.00 0.00 0.08 75 1008.0
20260506193002 16 89 1.6 4.8 0.00 0.00 0.08 74 1007.0
20260506191502 16 46 3.2 11.3 0.00 0.00 0.08 73 1006.0
20260506190001 16 36 4.8 6.4 0.00 0.00 0.08 71 1006.0
20260506184502 16 289 0.0 0.0 0.00 0.00 0.08 76 1006.0
20260506183003 16 290 1.6 3.2 0.00 0.00 0.08 70 1006.0
20260506181502 17 94 0.0 1.6 0.00 0.00 0.08 68 1005.0
20260506180002 18 126 0.0 0.0 0.00 0.00 0.08 60 1005.0
20260506174502 20 129 0.0 0.0 0.00 0.00 0.08 53 1005.0
20260506173002 20 137 3.2 3.2 0.00 0.00 0.08 50 1005.0
20260506171502 20 121 1.6 3.2 0.00 0.00 0.08 48 1005.0
20260506170002 21 128 3.2 3.2 0.00 0.00 0.08 48 1005.0
20260506164502 21 104 1.6 14.5 0.00 0.00 0.08 47 1005.0
20260506163002 22 179 1.6 6.4 0.00 0.00 0.08 47 1006.0
20260506161502 22 127 11.3 16.1 0.00 0.00 0.08 45 1006.0
20260506160002 22 135 4.8 14.5 0.00 0.00 0.08 46 1006.0
20260506154502 22 122 1.6 9.7 0.00 0.00 0.08 49 1006.0
20260506153002 20 45 0.0 3.2 0.00 0.00 0.08 56 1006.0
20260506151501 20 135 1.6 4.8 0.00 0.00 0.08 57 1006.0
20260506150002 21 128 11.3 20.9 0.00 0.00 0.08 52 1006.0
20260506144502 21 129 4.8 6.4 0.00 0.00 0.08 54 1007.0
20260506143003 21 55 1.6 4.8 0.00 0.00 0.08 55 1007.0
20260506141502 19 56 0.0 3.2 0.00 0.00 0.08 70 1007.0
20260506140002 19 124 0.0 3.2 0.00 0.00 0.08 66 1007.0
20260506134502 19 23 1.6 3.2 0.00 0.00 0.03 72 1007.0
20260506133002 19 122 1.6 6.4 0.13 0.00 0.03 64 1008.0
20260506131502 21 106 4.8 6.4 0.00 0.00 0.00 46 1007.0
20260506130002 22 222 4.8 16.1 0.00 0.00 0.00 44 1008.0
20260506124502 21 168 1.6 9.7 0.00 0.00 0.00 47 1008.0
20260506123002 22 74 3.2 4.8 0.00 0.00 0.00 44 1008.0
20260506121502 21 134 6.4 11.3 0.00 0.00 0.00 46 1009.0
20260506120002 21 207 0.0 4.8 0.00 0.00 0.00 45 1008.0
20260506114502 22 258 6.4 11.3 0.00 0.00 0.00 41 1009.0
20260506113002 21 224 1.6 6.4 0.00 0.00 0.00 42 1009.0
20260506111502 21 255 0.0 3.2 0.00 0.00 0.00 45 1009.0
20260506110002 22 235 0.0 6.4 0.00 0.00 0.00 43 1009.0
20260506104503 22 187 4.8 11.3 0.00 0.00 0.00 43 1009.0
20260506103003 21 54 0.0 1.6 0.00 0.00 0.00 47 1009.0
20260506101503 21 126 6.4 9.7 0.00 0.00 0.00 48 1010.0
20260506100002 21 17 1.6 3.2 0.00 0.00 0.00 48 1010.0
20260506094502 21 270 1.6 3.2 0.00 0.00 0.00 47 1010.0
20260506093002 20 257 1.6 6.4 0.00 0.00 0.00 51 1010.0
20260506091502 20 103 3.2 11.3 0.00 0.00 0.00 53 1010.0
20260506090001 19 265 3.2 9.7 0.00 0.00 0.00 55 1010.0
20260506084502 19 286 4.8 4.8 0.00 0.00 0.00 55 1010.0
20260506083003 19 230 4.8 6.4 0.00 0.00 0.00 56 1010.0
20260506081502 18 231 3.2 4.8 0.00 0.00 0.00 58 1010.0
20260506073002 18 226 3.2 6.4 0.00 0.00 0.00 63 1010.0
20260506071502 17 205 3.2 6.4 0.00 0.00 0.00 67 1010.0
20260506061502 14 221 1.6 3.2 0.00 0.00 0.00 82 1010.0